EN

Hourly Weather Al Hillah

Today, 28 January, Thursday

Time Temperature Precipitation Wind Pressure Humidity
00:00 +16°C° 0 mm 5 mps 758 mmHg 24%
01:00 +16°C° 0 mm 6 mps 758 mmHg 24%
02:00 +16°C° 0 mm 7 mps 757 mmHg 23%
03:00 +16°C° 0 mm 8 mps 756 mmHg 22%
04:00 +16°C° 0 mm 9 mps 756 mmHg 22%
05:00 +16°C° 0 mm 9 mps 756 mmHg 23%
06:00 +17°C° 0 mm 9 mps 756 mmHg 23%
07:00 +17°C° 0 mm 10 mps 756 mmHg 23%
08:00 +18°C° 0 mm 11 mps 756 mmHg 24%
09:00 +19°C° 0 mm 12 mps 756 mmHg 24%
10:00 +21°C° 0 mm 11 mps 756 mmHg 24%
11:00 +22°C° 0 mm 10 mps 756 mmHg 23%
12:00 +23°C° 0 mm 9 mps 756 mmHg 23%
13:00 +24°C° 0.1 mm 7 mps 755 mmHg 24%
14:00 +24°C° 0.1 mm 6 mps 755 mmHg 24%
15:00 +26°C° 0.1 mm 5 mps 754 mmHg 25%
16:00 +23°C° 0 mm 5 mps 755 mmHg 28%
17:00 +22°C° 0 mm 5 mps 755 mmHg 32%
18:00 +20°C° 0 mm 5 mps 755 mmHg 36%
19:00 +19°C° 0 mm 4 mps 756 mmHg 37%
20:00 +18°C° 0 mm 4 mps 756 mmHg 37%
21:00 +18°C° 0 mm 3 mps 757 mmHg 38%
22:00 +17°C° 0 mm 4 mps 757 mmHg 39%
23:00 +17°C° 0 mm 4 mps 758 mmHg 40%

Tomorrow, 29 January, Friday

Time Temperature Precipitation Wind Pressure Humidity
00:00 +15°C° 0 mm 5 mps 758 mmHg 41%
01:00 +14°C° 0 mm 4 mps 758 mmHg 42%
02:00 +14°C° 0 mm 4 mps 757 mmHg 43%
03:00 +13°C° 0 mm 3 mps 757 mmHg 44%
04:00 +13°C° 0 mm 3 mps 757 mmHg 44%
05:00 +13°C° 0 mm 3 mps 758 mmHg 45%
06:00 +13°C° 0 mm 4 mps 758 mmHg 46%
07:00 +14°C° 0 mm 3 mps 757 mmHg 46%
08:00 +16°C° 0 mm 3 mps 757 mmHg 46%
09:00 +17°C° 0 mm 3 mps 757 mmHg 47%
10:00 +19°C° 0 mm 3 mps 756 mmHg 42%
11:00 +21°C° 0 mm 4 mps 756 mmHg 37%
12:00 +23°C° 0 mm 4 mps 755 mmHg 32%
13:00 +25°C° 0 mm 5 mps 754 mmHg 30%
14:00 +25°C° 0 mm 5 mps 753 mmHg 29%
15:00 +26°C° 0 mm 6 mps 753 mmHg 27%
16:00 +23°C° 0.1 mm 5 mps 753 mmHg 29%
17:00 +21°C° 0.1 mm 4 mps 753 mmHg 32%
18:00 +20°C° 0.1 mm 3 mps 753 mmHg 34%
19:00 +19°C° 0 mm 6 mps 753 mmHg 40%
20:00 +16°C° 0 mm 8 mps 754 mmHg 46%
21:00 +14°C° 0 mm 11 mps 755 mmHg 52%
22:00 +13°C° 0 mm 9 mps 755 mmHg 56%
23:00 +12°C° 0 mm 7 mps 756 mmHg 61%

Day after tomorrow, 30 January, Saturday

Time Temperature Precipitation Wind Pressure Humidity
00:00 +12°C° 0 mm 4 mps 757 mmHg 65%
01:00 +12°C° 0 mm 5 mps 757 mmHg 62%
02:00 +12°C° 0 mm 5 mps 757 mmHg 59%
03:00 +12°C° 0 mm 5 mps 757 mmHg 56%
04:00 +12°C° 0 mm 5 mps 758 mmHg 56%
05:00 +10°C° 0 mm 5 mps 758 mmHg 56%
06:00 +10°C° 0 mm 5 mps 759 mmHg 56%
07:00 +10°C° 0 mm 5 mps 759 mmHg 54%
08:00 +12°C° 0 mm 5 mps 760 mmHg 51%
09:00 +13°C° 0 mm 5 mps 761 mmHg 49%
10:00 +14°C° 0 mm 5 mps 761 mmHg 43%
11:00 +15°C° 0 mm 5 mps 761 mmHg 38%
12:00 +17°C° 0 mm 4 mps 761 mmHg 33%
13:00 +17°C° 0 mm 4 mps 761 mmHg 32%
14:00 +17°C° 0 mm 4 mps 760 mmHg 31%
15:00 +17°C° 0 mm 4 mps 760 mmHg 30%
16:00 +16°C° 0 mm 3 mps 760 mmHg 32%
17:00 +15°C° 0 mm 2 mps 761 mmHg 34%
18:00 +15°C° 0 mm 2 mps 761 mmHg 36%
19:00 +14°C° 0 mm 1 mps 761 mmHg 38%
20:00 +13°C° 0 mm 1 mps 762 mmHg 41%
21:00 +12°C° 0 mm 1 mps 762 mmHg 43%
22:00 +12°C° 0 mm 1 mps 762 mmHg 42%
23:00 +12°C° 0 mm 2 mps 762 mmHg 42%

31 January, Sunday

Time Temperature Precipitation Wind Pressure Humidity
00:00 +11°C° 0 mm 3 mps 762 mmHg 41%
01:00 +11°C° 0 mm 3 mps 762 mmHg 42%
02:00 +11°C° 0 mm 3 mps 762 mmHg 42%
03:00 +11°C° 0 mm 3 mps 762 mmHg 42%
04:00 +11°C° 0 mm 3 mps 762 mmHg 44%
05:00 +10°C° 0 mm 3 mps 762 mmHg 45%
06:00 +10°C° 0 mm 3 mps 762 mmHg 46%
07:00 +11°C° 0 mm 3 mps 762 mmHg 44%
08:00 +12°C° 0 mm 4 mps 762 mmHg 42%
09:00 +13°C° 0 mm 4 mps 763 mmHg 40%
10:00 +15°C° 0 mm 4 mps 763 mmHg 36%
11:00 +17°C° 0 mm 4 mps 762 mmHg 33%
12:00 +19°C° 0 mm 4 mps 762 mmHg 30%
13:00 +19°C° 0 mm 4 mps 762 mmHg 28%
14:00 +20°C° 0 mm 3 mps 762 mmHg 27%
15:00 +20°C° 0 mm 3 mps 761 mmHg 25%
16:00 +19°C° 0 mm 2 mps 761 mmHg 28%
17:00 +18°C° 0 mm 2 mps 762 mmHg 30%
18:00 +16°C° 0 mm 1 mps 762 mmHg 32%
19:00 +16°C° 0 mm 1 mps 762 mmHg 32%
20:00 +16°C° 0 mm 1 mps 763 mmHg 33%
21:00 +16°C° 0 mm 2 mps 763 mmHg 33%
22:00 +16°C° 0 mm 2 mps 763 mmHg 34%
23:00 +15°C° 0 mm 2 mps 763 mmHg 36%

1 February, Monday

Time Temperature Precipitation Wind Pressure Humidity
00:00 +14°C° 0 mm 2 mps 763 mmHg 37%
01:00 +14°C° 0 mm 2 mps 763 mmHg 39%
02:00 +13°C° 0 mm 2 mps 763 mmHg 40%
03:00 +13°C° 0 mm 2 mps 763 mmHg 41%
04:00 +12°C° 0 mm 1 mps 763 mmHg 43%
05:00 +12°C° 0 mm 1 mps 764 mmHg 45%
06:00 +11°C° 0 mm 1 mps 764 mmHg 46%
07:00 +13°C° 0 mm 1 mps 764 mmHg 42%
08:00 +14°C° 0 mm 0 mps 764 mmHg 37%
09:00 +15°C° 0 mm 0 mps 765 mmHg 33%
10:00 +17°C° 0 mm 0 mps 765 mmHg 30%
11:00 +18°C° 0 mm 0 mps 765 mmHg 27%
12:00 +20°C° 0 mm 0 mps 765 mmHg 24%
13:00 +22°C° 0 mm 1 mps 764 mmHg 24%
14:00 +23°C° 0 mm 1 mps 764 mmHg 24%
15:00 +23°C° 0 mm 2 mps 763 mmHg 24%
16:00 +21°C° 0 mm 2 mps 763 mmHg 27%
17:00 +20°C° 0 mm 2 mps 763 mmHg 29%
18:00 +19°C° 0 mm 3 mps 763 mmHg 31%
19:00 +18°C° 0 mm 3 mps 764 mmHg 34%
20:00 +17°C° 0 mm 3 mps 764 mmHg 37%
21:00 +16°C° 0 mm 3 mps 764 mmHg 40%
22:00 +16°C° 0 mm 2 mps 764 mmHg 42%
23:00 +15°C° 0 mm 2 mps 764 mmHg 44%

2 February, Tuesday

Time Temperature Precipitation Wind Pressure Humidity
00:00 +15°C° 0 mm 2 mps 764 mmHg 46%
01:00 +15°C° 0 mm 2 mps 764 mmHg 47%
02:00 +14°C° 0 mm 2 mps 764 mmHg 48%
03:00 +14°C° 0 mm 2 mps 764 mmHg 48%
04:00 +13°C° 0 mm 2 mps 764 mmHg 50%
05:00 +13°C° 0 mm 2 mps 764 mmHg 51%
06:00 +13°C° 0 mm 2 mps 764 mmHg 52%
07:00 +14°C° 0 mm 2 mps 764 mmHg 48%
08:00 +14°C° 0 mm 3 mps 764 mmHg 45%
09:00 +17°C° 0 mm 3 mps 765 mmHg 41%
10:00 +18°C° 0 mm 3 mps 765 mmHg 36%
11:00 +20°C° 0 mm 3 mps 764 mmHg 32%
12:00 +22°C° 0 mm 3 mps 764 mmHg 28%
13:00 +22°C° 0 mm 3 mps 763 mmHg 26%
14:00 +23°C° 0 mm 4 mps 763 mmHg 24%
15:00 +25°C° 0 mm 4 mps 762 mmHg 23%
16:00 +22°C° 0 mm 4 mps 762 mmHg 26%
17:00 +21°C° 0 mm 3 mps 762 mmHg 28%
18:00 +20°C° 0 mm 3 mps 762 mmHg 31%
19:00 +19°C° 0 mm 3 mps 762 mmHg 33%
20:00 +18°C° 0 mm 3 mps 762 mmHg 36%
21:00 +17°C° 0 mm 3 mps 762 mmHg 39%
22:00 +17°C° 0 mm 3 mps 762 mmHg 41%
23:00 +16°C° 0 mm 2 mps 762 mmHg 43%
Show more